,,PA_Meas_PMT16A,,PR_Meas_QMR101_102,,RH_Meas_QMH101,,SR_Meas_QMS101,,TA_Meas_QMH101,,GenWind,,GenWind,
time,status,PA,status,PR,status,RH,status,SR,status,TA,status,DirAvg,status,SpdAvg,
2011-10-17, 00:00:04,VALID,916.589,VALID,0,VALID,84.9935,VALID,0,VALID,22.042,VALID,104,VALID,1.24883,
2011-10-17, 00:01:04,VALID,916.574,VALID,0,VALID,85.1078,VALID,0,VALID,22.0225,VALID,104,VALID,0.663281,
2011-10-17, 00:02:04,VALID,916.54,VALID,0,VALID,85.0773,VALID,0,VALID,22.0225,VALID,104,VALID,0.780078,
2011-10-17, 00:03:04,VALID,916.501,VALID,0,VALID,85.1383,VALID,0,VALID,22.0225,VALID,104,VALID,1.05625,
2011-10-17, 00:04:04,VALID,916.514,VALID,0,VALID,85.1459,VALID,0,VALID,21.9835,VALID,104,VALID,1.14727,
2011-10-17, 00:05:04,VALID,916.478,VALID,0,VALID,85.0087,VALID,0,VALID,22.042,VALID,104,VALID,0.515234,
2011-10-17, 00:06:04,VALID,916.512,VALID,0,VALID,84.8181,VALID,0,VALID,22.0615,VALID,104,VALID,0.331641,
2011-10-17, 00:07:04,VALID,916.482,VALID,0,VALID,84.193,VALID,0,VALID,22.1184,VALID,45,VALID,2.43516,
2011-10-17, 00:08:04,VALID,916.498,VALID,0,VALID,84.7114,VALID,0,VALID,22.0794,VALID,122,VALID,0.988281,
2011-10-17, 00:09:04,VALID,916.455,VALID,0,VALID,84.7038,VALID,0,VALID,22.1005,VALID,122,VALID,0.533203,
2011-10-17, 00:10:04,VALID,916.407,VALID,0,VALID,84.7724,VALID,0,VALID,22.1201,VALID,122,VALID,0.857031,
2011-10-17, 00:11:04,VALID,916.404,VALID,0,VALID,85.5195,VALID,0,VALID,22.0225,VALID,122,VALID,0.717578,
2011-10-17, 00:12:04,VALID,916.37,VALID,0,VALID,86.0836,VALID,0,VALID,21.9054,VALID,122,VALID,0.545703,
2011-10-17, 00:13:04,VALID,916.313,VALID,0,VALID,86.1827,VALID,0,VALID,21.8664,VALID,122,VALID,0.842578,
2011-10-17, 00:14:04,VALID,916.357,VALID,0,VALID,86.7011,VALID,0,VALID,21.8469,VALID,122,VALID,0.813281,
2011-10-17, 00:15:04,VALID,916.331,VALID,0,VALID,86.8078,VALID,0,VALID,21.8274,VALID,121,VALID,1.18242,
2011-10-17, 00:16:04,VALID,916.347,VALID,0,VALID,86.785,VALID,0,VALID,21.8257,VALID,103,VALID,1.18672,
2011-10-17, 00:17:04,VALID,916.342,VALID,0,VALID,86.724,VALID,0,VALID,21.8469,VALID,111,VALID,1.1668,
2011-10-17, 00:18:04,VALID,916.35,VALID,0,VALID,86.6172,VALID,0,VALID,21.8664,VALID,111,VALID,0.659375,
2011-10-17, 00:19:04,VALID,916.322,VALID,0,VALID,86.5486,VALID,0,VALID,21.8664,VALID,112,VALID,1.20625,
2011-10-17, 00:20:04,VALID,916.326,VALID,0,VALID,86.1598,VALID,0,VALID,21.964,VALID,143,VALID,1.20547,
2011-10-17, 00:21:04,VALID,916.363,VALID,0,VALID,85.7482,VALID,0,VALID,22.0225,VALID,134,VALID,1.13203,
2011-10-17, 00:22:04,VALID,916.345,VALID,0,VALID,85.4966,VALID,0,VALID,22.081,VALID,134,VALID,1.17148,
2011-10-17, 00:23:04,VALID,916.325,VALID,0,VALID,85.5195,VALID,0,VALID,22.0794,VALID,134,VALID,0.981641,
2011-10-17, 00:24:04,VALID,916.285,VALID,0,VALID,85.4509,VALID,0,VALID,22.1201,VALID,134,VALID,1.26367,
2011-10-17, 00:25:04,VALID,916.309,VALID,0,VALID,85.3289,VALID,0,VALID,22.1396,VALID,134,VALID,0.837109,
2011-10-17, 00:26:04,VALID,916.273,VALID,0,VALID,85.306,VALID,0,VALID,22.1379,VALID,134,VALID,1.16367,
2011-10-17, 00:27:04,VALID,916.291,VALID,0,VALID,85.428,VALID,0,VALID,22.1379,VALID,134,VALID,0.265234,
2011-10-17, 00:28:04,VALID,916.303,VALID,0,VALID,85.428,VALID,0,VALID,22.1184,VALID,134,VALID,0.685156,
2011-10-17, 00:29:04,VALID,916.302,VALID,0,VALID,85.1154,VALID,0,VALID,22.1591,VALID,134,VALID,0.880859,
2011-10-17, 00:30:04,VALID,916.291,VALID,0,VALID,85.1002,VALID,0,VALID,22.1769,VALID,134,VALID,0.342187,
2011-10-17, 00:31:04,VALID,916.304,VALID,0,VALID,85.0926,VALID,0,VALID,22.1981,VALID,134,VALID,0.479297,
2011-10-17, 00:32:04,VALID,916.289,VALID,0,VALID,85.1536,VALID,0,VALID,22.2176,VALID,134,VALID,0.725781,
2011-10-17, 00:33:04,VALID,916.279,VALID,0,VALID,85.0011,VALID,0,VALID,22.1574,VALID,155,VALID,0.9125,
2011-10-17, 00:34:04,VALID,916.214,VALID,0,VALID,84.437,VALID,0,VALID,22.2159,VALID,143,VALID,1.41445,
2011-10-17, 00:35:04,VALID,916.22,VALID,0,VALID,83.5298,VALID,0,VALID,22.3737,VALID,144,VALID,1.18242,
2011-10-17, 00:36:04,VALID,916.253,VALID,0,VALID,83.7127,VALID,0,VALID,22.4518,VALID,144,VALID,0.44375,
2011-10-17, 00:37:04,VALID,916.267,VALID,0,VALID,83.6441,VALID,0,VALID,22.4518,VALID,144,VALID,0.376563,
2011-10-17, 00:38:04,VALID,916.3,VALID,0,VALID,83.6365,VALID,0,VALID,22.4713,VALID,162,VALID,0.699219,
2011-10-17, 00:39:04,VALID,916.306,VALID,0,VALID,83.789,VALID,0,VALID,22.4501,VALID,145,VALID,0.569141,
2011-10-17, 00:40:04,VALID,916.32,VALID,0,VALID,83.8728,VALID,0,VALID,22.4323,VALID,180,VALID,0.981641,
2011-10-17, 00:41:04,VALID,916.291,VALID,0,VALID,83.85,VALID,0.107441,VALID,22.4518,VALID,132,VALID,0.646484,
2011-10-17, 00:42:04,VALID,916.299,VALID,0,VALID,84.0253,VALID,0,VALID,22.4518,VALID,132,VALID,0.885938,
2011-10-17, 00:43:04,VALID,916.333,VALID,0,VALID,84.1778,VALID,0,VALID,22.4306,VALID,145,VALID,0.525391,
2011-10-17, 00:44:04,VALID,916.316,VALID,0,VALID,84.2464,VALID,0,VALID,22.4323,VALID,145,VALID,0.962891,
2011-10-17, 00:45:04,VALID,916.291,VALID,0,VALID,83.8957,VALID,0.107441,VALID,22.4306,VALID,145,VALID,1.14961,
2011-10-17, 00:46:04,VALID,916.284,VALID,0,VALID,83.9796,VALID,0.107441,VALID,22.4713,VALID,145,VALID,1.11914,
2011-10-17, 00:47:04,VALID,916.257,VALID,0,VALID,83.9948,VALID,0,VALID,22.4696,VALID,118,VALID,0.814453,
2011-10-17, 00:48:04,VALID,916.227,VALID,0,VALID,83.8881,VALID,0,VALID,22.4696,VALID,75,VALID,1.34805,
2011-10-17, 00:49:04,VALID,916.243,VALID,0,VALID,84.01,VALID,0,VALID,22.4501,VALID,73,VALID,0.448047,
2011-10-17, 00:50:04,VALID,916.258,VALID,0,VALID,84.132,VALID,0,VALID,22.4518,VALID,122,VALID,0.714063,
2011-10-17, 00:51:04,VALID,916.248,VALID,0,VALID,83.8957,VALID,0,VALID,22.4518,VALID,106,VALID,0.860547,
2011-10-17, 00:52:04,VALID,916.257,VALID,0,VALID,84.0253,VALID,0,VALID,22.434,VALID,125,VALID,1.07422,
2011-10-17, 00:53:04,VALID,916.187,VALID,0,VALID,82.0051,VALID,0,VALID,22.5316,VALID,118,VALID,1.83242,
2011-10-17, 00:54:04,VALID,916.189,VALID,0,VALID,82.6226,VALID,0,VALID,22.6274,VALID,63,VALID,1.51563,
2011-10-17, 00:55:04,VALID,916.205,VALID,0,VALID,82.3329,VALID,0,VALID,22.6292,VALID,55,VALID,1.40508,
2011-10-17, 00:56:04,VALID,916.208,VALID,0,VALID,81.9441,VALID,0,VALID,22.6292,VALID,85,VALID,1.71563,
2011-10-17, 00:57:04,VALID,916.233,VALID,0,VALID,82.2338,VALID,0,VALID,22.6487,VALID,110,VALID,1.01992,
2011-10-17, 00:58:04,VALID,916.26,VALID,0,VALID,82.6226,VALID,0,VALID,22.6292,VALID,90,VALID,1.61094,
2011-10-17, 00:59:04,VALID,916.225,VALID,0,VALID,81.441,VALID,0,VALID,22.5884,VALID,70,VALID,4.26211,
2011-10-17, 01:00:04,VALID,916.228,VALID,0,VALID,81.8069,VALID,0,VALID,22.6274,VALID,131,VALID,1.85195,
2011-10-17, 01:01:04,VALID,916.242,VALID,0,VALID,82.1118,VALID,0,VALID,22.6079,VALID,106,VALID,1.3957,
2011-10-17, 01:02:04,VALID,916.255,VALID,0,VALID,82.5311,VALID,0,VALID,22.6096,VALID,106,VALID,1.18281,
2011-10-17, 01:03:04,VALID,916.216,VALID,0,VALID,82.5159,VALID,0,VALID,22.5689,VALID,101,VALID,1.58477,
2011-10-17, 01:04:04,VALID,916.195,VALID,0,VALID,82.0737,VALID,0,VALID,22.6096,VALID,100,VALID,1.73477,
2011-10-17, 01:05:04,VALID,916.19,VALID,0,VALID,82.5387,VALID,0,VALID,22.6062,VALID,99,VALID,0.944141,
2011-10-17, 01:06:04,VALID,916.169,VALID,0,VALID,82.3863,VALID,0,VALID,22.5867,VALID,113,VALID,1.49102,
2011-10-17, 01:07:04,VALID,916.141,VALID,0,VALID,82.8665,VALID,0.107441,VALID,22.5867,VALID,131,VALID,1.45625,
2011-10-17, 01:08:04,VALID,916.156,VALID,0,VALID,83.0571,VALID,0,VALID,22.5672,VALID,132,VALID,0.916016,
2011-10-17, 01:09:04,VALID,916.127,VALID,0,VALID,83.423,VALID,0,VALID,22.5281,VALID,132,VALID,0.947266,
2011-10-17, 01:10:04,VALID,916.14,VALID,0,VALID,83.4078,VALID,0,VALID,22.4891,VALID,131,VALID,0.937891,
2011-10-17, 01:11:04,VALID,916.148,VALID,0,VALID,83.4917,VALID,0,VALID,22.5103,VALID,110,VALID,1.09023,
2011-10-17, 01:12:04,VALID,916.168,VALID,0,VALID,82.2567,VALID,0,VALID,22.5689,VALID,114,VALID,1.50273,
2011-10-17, 01:13:04,VALID,916.165,VALID,0,VALID,82.6455,VALID,0,VALID,22.5672,VALID,108,VALID,1.53437,
2011-10-17, 01:14:04,VALID,916.157,VALID,0,VALID,82.4625,VALID,0,VALID,22.5689,VALID,114,VALID,1.09531,
2011-10-17, 01:15:04,VALID,916.145,VALID,0,VALID,82.897,VALID,0,VALID,22.5281,VALID,99,VALID,0.715234,
2011-10-17, 01:16:04,VALID,916.126,VALID,0,VALID,82.7446,VALID,0,VALID,22.4891,VALID,148,VALID,1.51758,
2011-10-17, 01:17:04,VALID,916.073,VALID,0,VALID,82.9046,VALID,0,VALID,22.5086,VALID,90,VALID,1.79453,
2011-10-17, 01:18:04,VALID,916.097,VALID,0,VALID,82.4091,VALID,0,VALID,22.4696,VALID,120,VALID,1.6918,
2011-10-17, 01:19:04,VALID,916.105,VALID,0,VALID,82.028,VALID,0,VALID,22.4891,VALID,118,VALID,1.70742,
2011-10-17, 01:20:04,VALID,916.101,VALID,0,VALID,82.7522,VALID,0,VALID,22.5103,VALID,80,VALID,0.85,
2011-10-17, 01:21:04,VALID,916.125,VALID,0,VALID,82.6302,VALID,0,VALID,22.4696,VALID,77,VALID,1.27734,
2011-10-17, 01:22:04,VALID,916.116,VALID,0,VALID,83.0114,VALID,0,VALID,22.4306,VALID,90,VALID,0.872266,
2011-10-17, 01:23:04,VALID,916.129,VALID,0,VALID,82.8513,VALID,0,VALID,22.4306,VALID,107,VALID,1.18633,
2011-10-17, 01:24:04,VALID,916.071,VALID,0,VALID,83.4459,VALID,0,VALID,22.4306,VALID,111,VALID,0.800391,
2011-10-17, 01:25:04,VALID,916.061,VALID,0,VALID,83.2172,VALID,0,VALID,22.4111,VALID,109,VALID,0.552734,
2011-10-17, 01:26:04,VALID,916.06,VALID,0,VALID,83.1715,VALID,0,VALID,22.3916,VALID,99,VALID,1.22969,
2011-10-17, 01:27:04,VALID,916.019,VALID,0,VALID,83.1715,VALID,0.107441,VALID,22.3916,VALID,106,VALID,1.40234,
2011-10-17, 01:28:04,VALID,916.066,VALID,0,VALID,83.1486,VALID,0,VALID,22.3933,VALID,120,VALID,1.13477,
2011-10-17, 01:29:04,VALID,916.041,VALID,0,VALID,83.3773,VALID,0,VALID,22.372,VALID,131,VALID,0.603516,
2011-10-17, 01:30:04,VALID,916.035,VALID,0,VALID,83.3544,VALID,0.107441,VALID,22.3525,VALID,115,VALID,1.27422,
2011-10-17, 01:31:04,VALID,915.992,VALID,0,VALID,83.8728,VALID,0,VALID,22.333,VALID,88,VALID,1,
2011-10-17, 01:32:04,VALID,916,VALID,0,VALID,83.8652,VALID,0,VALID,22.294,VALID,106,VALID,1.23711,
2011-10-17, 01:33:04,VALID,915.981,VALID,0,VALID,82.9809,VALID,0,VALID,22.2745,VALID,96,VALID,1.81367,
2011-10-17, 01:34:04,VALID,915.983,VALID,0,VALID,82.2872,VALID,0.107441,VALID,22.4111,VALID,99,VALID,1.46289,
2011-10-17, 01:35:04,VALID,915.949,VALID,0,VALID,82.7522,VALID,0,VALID,22.4323,VALID,98,VALID,0.630078,
2011-10-17, 01:36:04,VALID,915.959,VALID,0,VALID,83.019,VALID,0,VALID,22.4128,VALID,98,VALID,0.304297,
2011-10-17, 01:37:04,VALID,915.972,VALID,0,VALID,83.3316,VALID,0,VALID,22.3737,VALID,99,VALID,0.772656,
2011-10-17, 01:38:04,VALID,915.97,VALID,0,VALID,82.7979,VALID,0,VALID,22.3542,VALID,107,VALID,1.14297,
2011-10-17, 01:39:04,VALID,915.985,VALID,0,VALID,83.2248,VALID,0,VALID,22.3347,VALID,99,VALID,0.853125,
2011-10-17, 01:40:04,VALID,915.98,VALID,0,VALID,83.1867,VALID,0,VALID,22.3347,VALID,100,VALID,0.910547,
2011-10-17, 01:41:04,VALID,915.954,VALID,0,VALID,82.7141,VALID,0,VALID,22.3347,VALID,100,VALID,0.400391,
2011-10-17, 01:42:04,VALID,915.941,VALID,0,VALID,82.4167,VALID,0,VALID,22.3542,VALID,114,VALID,0.968359,
2011-10-17, 01:43:04,VALID,915.923,VALID,0,VALID,82.1118,VALID,0,VALID,22.395,VALID,100,VALID,1.4043,
2011-10-17, 01:44:04,VALID,915.903,VALID,0,VALID,82.4396,VALID,0,VALID,22.4128,VALID,99,VALID,0.621875,
2011-10-17, 01:45:04,VALID,915.89,VALID,0,VALID,82.2414,VALID,0,VALID,22.3737,VALID,99,VALID,0.957422,
2011-10-17, 01:46:04,VALID,915.883,VALID,0,VALID,82.4777,VALID,0,VALID,22.3737,VALID,100,VALID,0.671094,
2011-10-17, 01:47:04,VALID,915.861,VALID,0,VALID,81.8298,VALID,0,VALID,22.395,VALID,100,VALID,0.85625,
2011-10-17, 01:48:04,VALID,915.811,VALID,0,VALID,81.6163,VALID,0,VALID,22.4323,VALID,100,VALID,0.901563,
2011-10-17, 01:49:04,VALID,915.818,VALID,0,VALID,81.845,VALID,0,VALID,22.4925,VALID,99,VALID,0.901172,
2011-10-17, 01:50:04,VALID,915.821,VALID,0,VALID,82.0889,VALID,0.107441,VALID,22.4908,VALID,99,VALID,0.344531,
2011-10-17, 01:51:04,VALID,915.767,VALID,0,VALID,82.554,VALID,0.107441,VALID,22.4111,VALID,99,VALID,0.541016,
2011-10-17, 01:52:04,VALID,915.762,VALID,0,VALID,82.5311,VALID,0.107441,VALID,22.333,VALID,100,VALID,1.18008,
2011-10-17, 01:53:04,VALID,915.763,VALID,0,VALID,82.9351,VALID,0,VALID,22.3135,VALID,107,VALID,1.08555,
2011-10-17, 01:54:04,VALID,915.7,VALID,0,VALID,83.202,VALID,0,VALID,22.2745,VALID,107,VALID,1.06914,
2011-10-17, 01:55:04,VALID,915.663,VALID,0,VALID,83.3773,VALID,0,VALID,22.2567,VALID,107,VALID,0.826953,
2011-10-17, 01:56:04,VALID,915.65,VALID,0,VALID,83.2706,VALID,0,VALID,22.1964,VALID,107,VALID,1.30078,
2011-10-17, 01:57:04,VALID,915.621,VALID,0,VALID,83.4688,VALID,0,VALID,22.2176,VALID,107,VALID,1.42695,
2011-10-17, 01:58:04,VALID,915.639,VALID,0,VALID,83.4078,VALID,0,VALID,22.1591,VALID,107,VALID,1.61016,
2011-10-17, 01:59:04,VALID,915.588,VALID,0,VALID,81.2961,VALID,0,VALID,22.2762,VALID,105,VALID,1.39492,
2011-10-17, 02:00:04,VALID,915.558,VALID,0,VALID,80.0992,VALID,0,VALID,22.3135,VALID,59,VALID,2.61016,
2011-10-17, 02:01:04,VALID,915.554,VALID,0,VALID,80.6481,VALID,0,VALID,22.3916,VALID,57,VALID,2.33281,
2011-10-17, 02:02:04,VALID,915.562,VALID,0,VALID,81.136,VALID,0,VALID,22.3916,VALID,71,VALID,2.38086,
2011-10-17, 02:03:04,VALID,915.558,VALID,0,VALID,81.5858,VALID,0,VALID,22.333,VALID,106,VALID,1.6207,
2011-10-17, 02:04:04,VALID,915.528,VALID,0,VALID,80.1678,VALID,0,VALID,22.3135,VALID,110,VALID,2.42227,
2011-10-17, 02:05:04,VALID,915.495,VALID,0,VALID,79.8782,VALID,0,VALID,22.4111,VALID,106,VALID,1.48047,
2011-10-17, 02:06:04,VALID,915.514,VALID,0,VALID,80.4804,VALID,0.107441,VALID,22.4111,VALID,97,VALID,1.63437,
2011-10-17, 02:07:04,VALID,915.502,VALID,0,VALID,80.9759,VALID,0,VALID,22.372,VALID,110,VALID,1.12852,
2011-10-17, 02:08:04,VALID,915.473,VALID,0,VALID,81.6163,VALID,0,VALID,22.2745,VALID,91,VALID,1.60195,
2011-10-17, 02:09:04,VALID,915.458,VALID,0,VALID,82.5692,VALID,0,VALID,22.1769,VALID,115,VALID,1.43438,
2011-10-17, 02:10:04,VALID,915.424,VALID,0,VALID,83.1105,VALID,0,VALID,22.0598,VALID,96,VALID,1.0543,
2011-10-17, 02:11:04,VALID,915.421,VALID,0,VALID,83.3773,VALID,0,VALID,21.9623,VALID,96,VALID,1.40742,
2011-10-17, 02:12:04,VALID,915.427,VALID,0,VALID,83.5908,VALID,0,VALID,21.9233,VALID,111,VALID,1.48672,
2011-10-17, 02:13:04,VALID,915.427,VALID,0,VALID,83.0495,VALID,0,VALID,21.8842,VALID,105,VALID,2.30156,
2011-10-17, 02:14:04,VALID,915.391,VALID,0,VALID,81.7611,VALID,0.107441,VALID,22.0013,VALID,119,VALID,1.57734,
2011-10-17, 02:15:04,VALID,915.4,VALID,0,VALID,81.845,VALID,0,VALID,22.1396,VALID,121,VALID,1.03398,
2011-10-17, 02:16:04,VALID,915.405,VALID,0,VALID,82.3786,VALID,0,VALID,22.1591,VALID,121,VALID,1.08945,
2011-10-17, 02:17:04,VALID,915.382,VALID,0,VALID,81.967,VALID,0,VALID,22.1379,VALID,121,VALID,1.09922,
2011-10-17, 02:18:04,VALID,915.417,VALID,0,VALID,81.7611,VALID,0,VALID,22.1201,VALID,59,VALID,1.46328,
2011-10-17, 02:19:04,VALID,915.379,VALID,0,VALID,82.493,VALID,0,VALID,22.1201,VALID,51,VALID,2.10391,
2011-10-17, 02:20:04,VALID,915.4,VALID,0,VALID,83.0952,VALID,0.107441,VALID,22.0403,VALID,80,VALID,0.923828,
2011-10-17, 02:21:04,VALID,915.376,VALID,0,VALID,82.6531,VALID,0,VALID,22.0013,VALID,119,VALID,1.58828,
2011-10-17, 02:22:04,VALID,915.28,VALID,0,VALID,79.1006,VALID,0,VALID,22.2176,VALID,83,VALID,1.43633,
2011-10-17, 02:23:04,VALID,915.326,VALID,0,VALID,79.8019,VALID,0,VALID,22.3525,VALID,114,VALID,2.59766,
2011-10-17, 02:24:04,VALID,915.309,VALID,0,VALID,79.5656,VALID,0,VALID,22.3916,VALID,127,VALID,1.93477,
2011-10-17, 02:25:04,VALID,915.286,VALID,0,VALID,78.4297,VALID,0,VALID,22.372,VALID,67,VALID,3.2332,
2011-10-17, 02:26:04,VALID,915.262,VALID,0,VALID,78.788,VALID,0.107441,VALID,22.4501,VALID,63,VALID,2.68438,
2011-10-17, 02:27:04,VALID,915.31,VALID,0,VALID,79.3293,VALID,0.107441,VALID,22.4501,VALID,103,VALID,2.26523,
2011-10-17, 02:28:04,VALID,915.238,VALID,0,VALID,79.2988,VALID,0,VALID,22.3525,VALID,65,VALID,2.22148,
2011-10-17, 02:29:04,VALID,915.268,VALID,0,VALID,79.5961,VALID,0,VALID,22.3525,VALID,95,VALID,1.70391,
2011-10-17, 02:30:04,VALID,915.28,VALID,0,VALID,79.4512,VALID,0,VALID,22.333,VALID,127,VALID,1.81172,
2011-10-17, 02:31:04,VALID,915.261,VALID,0,VALID,79.9315,VALID,0,VALID,22.3135,VALID,70,VALID,1.63789,
2011-10-17, 02:32:04,VALID,915.24,VALID,0,VALID,79.7409,VALID,0,VALID,22.2957,VALID,104,VALID,1.17344,
2011-10-17, 02:33:04,VALID,915.293,VALID,0,VALID,79.9925,VALID,0,VALID,22.2957,VALID,105,VALID,1.47031,
2011-10-17, 02:34:04,VALID,915.288,VALID,0,VALID,80.1602,VALID,0,VALID,22.2745,VALID,96,VALID,1.48242,
2011-10-17, 02:35:04,VALID,915.306,VALID,0,VALID,79.9925,VALID,0,VALID,22.2354,VALID,124,VALID,1.02266,
2011-10-17, 02:36:04,VALID,915.319,VALID,0,VALID,80.0764,VALID,0,VALID,22.2354,VALID,77,VALID,2.16641,
2011-10-17, 02:37:04,VALID,915.35,VALID,0,VALID,80.2365,VALID,0,VALID,22.1964,VALID,88,VALID,1.37031,
2011-10-17, 02:38:04,VALID,915.381,VALID,0,VALID,80.7472,VALID,0,VALID,22.1574,VALID,106,VALID,1.03789,
2011-10-17, 02:39:04,VALID,915.352,VALID,0,VALID,81.1131,VALID,0,VALID,22.1591,VALID,106,VALID,0.705469,
2011-10-17, 02:40:04,VALID,915.36,VALID,0,VALID,80.7091,VALID,0,VALID,22.1591,VALID,106,VALID,0.528516,
2011-10-17, 02:41:04,VALID,915.333,VALID,0,VALID,81.2122,VALID,0.107441,VALID,22.1379,VALID,106,VALID,1.05938,
2011-10-17, 02:42:04,VALID,915.316,VALID,0,VALID,81.2351,VALID,0.107441,VALID,22.0989,VALID,106,VALID,0.783594,
2011-10-17, 02:43:04,VALID,915.268,VALID,0,VALID,81.5782,VALID,0.107441,VALID,22.1005,VALID,106,VALID,1.09414,
2011-10-17, 02:44:04,VALID,915.267,VALID,0,VALID,81.7078,VALID,0,VALID,22.0598,VALID,106,VALID,0.886328,
2011-10-17, 02:45:04,VALID,915.206,VALID,0,VALID,81.9593,VALID,0,VALID,22.0403,VALID,106,VALID,0.39375,
2011-10-17, 02:46:04,VALID,915.215,VALID,0,VALID,81.6163,VALID,0.107441,VALID,22.0208,VALID,106,VALID,1.12109,
2011-10-17, 02:47:04,VALID,915.224,VALID,0,VALID,82.0203,VALID,0,VALID,22.0225,VALID,96,VALID,1.1625,
2011-10-17, 02:48:04,VALID,915.208,VALID,0,VALID,80.9912,VALID,0,VALID,22.1073,VALID,120,VALID,2.76211,
2011-10-17, 02:49:04,VALID,915.214,VALID,0,VALID,80.8387,VALID,0,VALID,22.0794,VALID,103,VALID,1.39609,
2011-10-17, 02:50:04,VALID,915.201,VALID,0,VALID,80.8082,VALID,0,VALID,22.1413,VALID,107,VALID,1.32383,
2011-10-17, 02:51:04,VALID,915.17,VALID,0,VALID,79.1463,VALID,0.107441,VALID,22.2159,VALID,116,VALID,0.808203,
2011-10-17, 02:52:04,VALID,915.139,VALID,0,VALID,79.2607,VALID,0,VALID,22.2745,VALID,158,VALID,0.459766,
2011-10-17, 02:53:04,VALID,915.191,VALID,0,VALID,79.6571,VALID,0,VALID,22.294,VALID,158,VALID,0.342187,
2011-10-17, 02:54:04,VALID,915.213,VALID,0,VALID,80.7167,VALID,0,VALID,22.2745,VALID,92,VALID,1.01953,
2011-10-17, 02:55:04,VALID,915.203,VALID,0,VALID,80.5871,VALID,0,VALID,22.1379,VALID,74,VALID,1.32773,
2011-10-17, 02:56:04,VALID,915.203,VALID,0,VALID,81.4028,VALID,0,VALID,22.0598,VALID,147,VALID,1.34531,
2011-10-17, 02:57:04,VALID,915.237,VALID,0,VALID,81.441,VALID,0.107441,VALID,22.0013,VALID,128,VALID,0.696094,
2011-10-17, 02:58:04,VALID,915.264,VALID,0,VALID,81.4486,VALID,0,VALID,22.003,VALID,128,VALID,1.725,
2011-10-17, 02:59:04,VALID,915.217,VALID,0,VALID,81.8602,VALID,0.107441,VALID,21.964,VALID,95,VALID,1.41562,
2011-10-17, 03:00:04,VALID,915.231,VALID,0,VALID,81.8679,VALID,0,VALID,21.9428,VALID,194,VALID,0.9625,
2011-10-17, 03:01:04,VALID,915.275,VALID,0,VALID,82.0661,VALID,0.107441,VALID,21.9038,VALID,158,VALID,1.90195,
2011-10-17, 03:02:04,VALID,915.28,VALID,0,VALID,82.0432,VALID,0,VALID,21.9038,VALID,141,VALID,1.30977,
2011-10-17, 03:03:04,VALID,915.287,VALID,0,VALID,82.3786,VALID,0,VALID,21.8842,VALID,136,VALID,0.867969,
2011-10-17, 03:04:04,VALID,915.24,VALID,0,VALID,82.6683,VALID,0,VALID,21.8452,VALID,135,VALID,0.715625,
2011-10-17, 03:05:04,VALID,915.235,VALID,0,VALID,82.9428,VALID,0,VALID,21.8079,VALID,135,VALID,0.473047,
2011-10-17, 03:06:04,VALID,915.244,VALID,0,VALID,81.6849,VALID,0,VALID,21.8274,VALID,135,VALID,1.27266,
2011-10-17, 03:07:04,VALID,915.239,VALID,0,VALID,81.7688,VALID,0,VALID,21.9249,VALID,135,VALID,0.558203,
2011-10-17, 03:08:04,VALID,915.26,VALID,0,VALID,82.1652,VALID,0,VALID,21.9249,VALID,135,VALID,0.920313,
2011-10-17, 03:09:04,VALID,915.228,VALID,0,VALID,82.432,VALID,0,VALID,21.8681,VALID,148,VALID,0.892187,
2011-10-17, 03:10:04,VALID,915.196,VALID,0,VALID,82.4015,VALID,0,VALID,21.79,VALID,148,VALID,0.937891,
2011-10-17, 03:11:04,VALID,915.172,VALID,0,VALID,82.7674,VALID,0,VALID,21.7298,VALID,85,VALID,0.902344,
2011-10-17, 03:12:04,VALID,915.173,VALID,0,VALID,82.958,VALID,0,VALID,21.6518,VALID,85,VALID,0.878125,
2011-10-17, 03:13:04,VALID,915.202,VALID,0,VALID,82.6607,VALID,0,VALID,21.6518,VALID,105,VALID,1.02773,
2011-10-17, 03:14:04,VALID,915.165,VALID,0,VALID,82.6836,VALID,0,VALID,21.6713,VALID,84,VALID,0.487109,
2011-10-17, 03:15:04,VALID,915.182,VALID,0,VALID,82.371,VALID,0,VALID,21.6518,VALID,147,VALID,1.12266,
2011-10-17, 03:16:04,VALID,915.146,VALID,0,VALID,82.897,VALID,0,VALID,21.7103,VALID,123,VALID,1.29805,
2011-10-17, 03:17:04,VALID,915.164,VALID,0,VALID,81.5858,VALID,0,VALID,21.7688,VALID,113,VALID,1.67617,
2011-10-17, 03:18:04,VALID,915.135,VALID,0,VALID,81.4867,VALID,0,VALID,21.8664,VALID,105,VALID,1.84727,
2011-10-17, 03:19:04,VALID,915.163,VALID,0,VALID,81.8526,VALID,0,VALID,21.8274,VALID,103,VALID,1.57852,
2011-10-17, 03:20:04,VALID,915.16,VALID,0,VALID,81.4867,VALID,0,VALID,21.8664,VALID,125,VALID,1.70391,
2011-10-17, 03:21:04,VALID,915.153,VALID,0,VALID,81.662,VALID,0,VALID,21.8859,VALID,149,VALID,1.40625,
2011-10-17, 03:22:04,VALID,915.188,VALID,0,VALID,81.441,VALID,0,VALID,21.8647,VALID,81,VALID,1.50547,
2011-10-17, 03:23:04,VALID,915.145,VALID,0,VALID,81.8374,VALID,0,VALID,21.8257,VALID,71,VALID,1.81758,
2011-10-17, 03:24:04,VALID,915.128,VALID,0,VALID,82.1957,VALID,0,VALID,21.8274,VALID,137,VALID,1.25,
2011-10-17, 03:25:04,VALID,915.121,VALID,0,VALID,82.1271,VALID,0,VALID,21.7672,VALID,159,VALID,1.33711,
2011-10-17, 03:26:04,VALID,915.088,VALID,0,VALID,82.0356,VALID,0,VALID,21.7672,VALID,123,VALID,1.63086,
2011-10-17, 03:27:04,VALID,915.122,VALID,0,VALID,82.0356,VALID,0,VALID,21.7883,VALID,150,VALID,1.82383,
2011-10-17, 03:28:04,VALID,915.1,VALID,0,VALID,81.7001,VALID,0,VALID,21.8062,VALID,110,VALID,1.77188,
2011-10-17, 03:29:04,VALID,915.071,VALID,0,VALID,81.6773,VALID,0,VALID,21.8469,VALID,69,VALID,0.883203,
2011-10-17, 03:30:04,VALID,915.069,VALID,0,VALID,81.7916,VALID,0,VALID,21.8859,VALID,90,VALID,1.35273,
2011-10-17, 03:31:04,VALID,915.091,VALID,0,VALID,81.4867,VALID,0,VALID,21.8257,VALID,117,VALID,1.95859,
2011-10-17, 03:32:04,VALID,915.095,VALID,0,VALID,81.5096,VALID,0,VALID,21.8859,VALID,88,VALID,1.44414,
2011-10-17, 03:33:04,VALID,915.097,VALID,0,VALID,81.8984,VALID,0,VALID,21.8452,VALID,144,VALID,1.18242,
2011-10-17, 03:34:04,VALID,915.106,VALID,0,VALID,82.0584,VALID,0,VALID,21.8062,VALID,158,VALID,1.70352,
2011-10-17, 03:35:04,VALID,915.129,VALID,0,VALID,82.5311,VALID,0,VALID,21.7883,VALID,140,VALID,0.88125,
2011-10-17, 03:36:04,VALID,915.097,VALID,0,VALID,82.9123,VALID,0,VALID,21.6891,VALID,100,VALID,1.11719,
2011-10-17, 03:37:04,VALID,915.113,VALID,0,VALID,83.0724,VALID,0,VALID,21.6518,VALID,78,VALID,0.881641,
2011-10-17, 03:38:04,VALID,915.111,VALID,0,VALID,83.2325,VALID,0,VALID,21.6128,VALID,94,VALID,1.09961,
2011-10-17, 03:39:04,VALID,915.142,VALID,0,VALID,83.3849,VALID,0,VALID,21.5932,VALID,96,VALID,1.47187,
2011-10-17, 03:40:04,VALID,915.082,VALID,0,VALID,82.9199,VALID,0,VALID,21.6501,VALID,115,VALID,1.39766,
2011-10-17, 03:41:04,VALID,915.073,VALID,0,VALID,83.0495,VALID,0,VALID,21.6696,VALID,115,VALID,1.08242,
2011-10-17, 03:42:04,VALID,915.102,VALID,0,VALID,83.1105,VALID,0,VALID,21.6306,VALID,84,VALID,0.653906,
2011-10-17, 03:43:04,VALID,915.138,VALID,0,VALID,83.4383,VALID,0,VALID,21.6111,VALID,110,VALID,1.68438,
2011-10-17, 03:44:04,VALID,915.085,VALID,0,VALID,83.5374,VALID,0,VALID,21.5916,VALID,115,VALID,1,
2011-10-17, 03:45:04,VALID,915.054,VALID,0,VALID,83.2858,VALID,0,VALID,21.6323,VALID,110,VALID,1.82617,